Flag for Germany Weather past 2 weeks in Ilmenau, Thuringia, Germany

Now
30 °F

Clear.


Feels Like: 22 °F
Forecast: 35 / 54 °F
Wind: 9 mph from Southwest

Location: Erfurt-Bindersleben

Current Time: Apr 19, 2015 at 5:07:17 AM

Latest Report: Apr 19, 2015 at 4:20 AM


Visibility: 10 mi

Pressure: 30.18 "Hg

Humidity: 86%

Dew point: 27 °F

Location of IlmenauLocation

Historic Weather in Ilmenau — Graph

°F

Ilmenau temperature yesterday

Maximum temperature yesterday: 50 °F (at 4:20 PM)
Minimum temperature yesterday: 37 °F (at 1:50 AM)
Average temperature yesterday: 43 °F

Past Weeks' High & Low Weather Summary

 TemperatureHumidityPressure
High73 °F (Apr 15, 3:50 PM)100% (Apr 4, 8:20 AM)30.57 "Hg (Apr 4, 8:20 AM)
Low25 °F (Apr 7, 6:50 AM)25% (Apr 15, 3:50 PM)29.92 "Hg (Apr 15, 6:50 PM)
Average47 °F64%30.22 "Hg
* Reported Apr 4 3:20 AM — Apr 19 3:50 AM, Ilmenau, Weather by CustomWeather, © 2015

Note: Actual official high and low records may vary slightly from our data, if they occured in-between our weather recording intervals... More about our weather records

Advertising

Ilmenau weather history for previous 24 hours

 ConditionsComfort  
Time TempWeatherWind HumidityBarometerVisibility
3:50 AM
Sun, Apr 19
30 °FClear.9 mph86%30.18 "Hg10 mi
3:20 AM32 °FClear.9 mph80%30.18 "Hg10 mi
2:50 AM32 °FClear.9 mph87%30.21 "Hg10 mi
2:20 AM32 °FClear.10 mph87%30.21 "Hg10 mi
1:20 AM32 °FClear.10 mph87%30.21 "Hg10 mi
12:50 AM34 °FClear.9 mph81%30.21 "Hg10 mi
12:20 AM34 °FClear.6 mph81%30.24 "Hg10 mi
11:50 PM
Sat, Apr 18
39 °FClear.5 mph65%30.24 "Hg10 mi
11:20 PM39 °FClear.5 mph65%30.24 "Hg10 mi
10:50 PM43 °FClear.2 mph53%30.24 "Hg10 mi
10:20 PM43 °FClear.2 mph53%30.24 "Hg10 mi
9:50 PM45 °FClear.2 mph49%30.24 "Hg10 mi
9:20 PM45 °FClear.3 mph49%30.24 "Hg10 mi
8:50 PM46 °FSunny.2 mph46%30.24 "Hg10 mi
8:20 PM46 °FSunny.2 mph46%30.24 "Hg10 mi
7:50 PM48 °FSunny.3 mph43%30.24 "Hg10 mi
7:20 PM48 °FSunny.3 mph43%30.24 "Hg10 mi
6:50 PM50 °FSunny.2 mph40%30.24 "Hg10 mi
6:20 PM50 °FSunny.5 mph40%30.24 "Hg10 mi
5:50 PM50 °FSunny.6 mph43%30.24 "Hg10 mi
5:20 PM50 °FPassing clouds.6 mph40%30.24 "HgN/A
4:50 PM50 °FSunny.3 mph43%30.24 "Hg10 mi
4:20 PM50 °FScattered clouds.5 mph47%30.27 "HgN/A
3:50 PM48 °FScattered clouds.5 mph43%30.27 "HgN/A
3:20 PM48 °FScattered clouds.6 mph43%30.27 "HgN/A
2:50 PM48 °FPartly sunny.6 mph46%30.27 "HgN/A
2:20 PM48 °FScattered clouds.6 mph43%30.27 "HgN/A
1:50 PM46 °FPartly sunny.8 mph50%30.27 "HgN/A
1:20 PM46 °FScattered clouds.6 mph57%30.30 "HgN/A
12:50 PM46 °FScattered clouds.7 mph53%30.30 "HgN/A
12:20 PM46 °FScattered clouds.7 mph62%30.30 "HgN/A
11:50 AM45 °FScattered clouds.7 mph57%30.30 "HgN/A
11:20 AM45 °FScattered clouds.8 mph61%30.30 "HgN/A
10:50 AM41 °FScattered clouds.10 mph70%30.27 "HgN/A
10:20 AM43 °FScattered clouds.7 mph76%30.27 "HgN/A
9:50 AM39 °FScattered clouds.8 mph81%30.27 "HgN/A
9:20 AM39 °FScattered clouds.7 mph75%30.27 "HgN/A
8:50 AM39 °FScattered clouds.8 mph81%30.24 "HgN/A
8:20 AM39 °FScattered clouds.9 mph81%30.24 "HgN/A
7:50 AM39 °FPassing clouds.9 mph81%30.24 "HgN/A
7:20 AM37 °FScattered clouds.8 mph81%30.21 "HgN/A
6:50 AM37 °FPassing clouds.6 mph81%30.21 "HgN/A
6:20 AM37 °FPassing clouds.6 mph81%30.21 "HgN/A
5:50 AM37 °FPassing clouds.7 mph81%30.18 "HgN/A
5:20 AM37 °FPassing clouds.7 mph81%30.18 "HgN/A
Weather by CustomWeather, © 2015

See weather overviewHow to use our weather pages